RH
8 9 11 12 14 12 8 9 10 12 11 14 10 9 12 14 10 8 28 43 40 39 40 40 39 39 39 38 37 37 38 44 62 69 69 57 59 72 69 71 68 66 69
9 5 6 8 9 12 10 7 10 12 12 10 12 9 9 11 12 8 13 35 40 36 36 39 41 39 39 38 36 36 37 38 39 59 70 61 52 58 60 62 69 71 67
22 25 26 17 8 7 9 9 9 11 10 11 12 12 9 9 10 11 8 18 37 37 38 40 41 41 39 38 36 35 34 35 35 34 41 64 68 59 49 49 52 63 73
26 26 30 29 22 15 10 8 9 9 10 11 12 12 12 11 11 10 13 10 18 36 37 37 40 41 40 40 38 36 35 34 34 33 29 42 59 69 52 41 32 34 48
31 26 21 30 28 23 19 15 15 14 14 15 15 16 17 14 11 10 9 11 10 16 33 35 35 37 39 39 41 39 36 35 34 33 29 29 44 70 58 47 42 48 58
23 29 29 26 29 20 20 21 22 24 24 25 24 25 25 23 20 14 11 8 10 11 12 25 32 30 30 30 38 42 40 37 35 34 33 28 32 64 69 51 40 46 60
17 16 17 26 29 23 18 18 22 27 29 28 31 32 29 30 30 29 25 12 7 8 12 12 17 25 28 28 30 38 40 40 38 35 35 34 30 51 67 58 56 37 45
13 14 15 16 23 28 26 22 20 23 26 27 30 33 33 30 34 38 38 33 18 8 8 11 12 15 22 24 25 27 35 40 40 39 36 35 37 38 59 55 59 51 35
13 14 14 14 19 22 23 29 28 28 24 27 32 32 31 30 32 36 41 43 37 24 18 9 10 11 12 18 23 24 26 32 37 37 34 35 35 34 61 65 58 52 33
14 13 13 13 14 18 21 22 29 30 30 28 33 33 32 33 34 34 37 43 44 40 36 24 15 12 11 12 13 15 22 28 30 30 31 35 40 39 46 65 66 64 44
15 13 12 12 13 14 22 22 24 31 31 28 32 36 34 34 34 35 37 38 38 42 43 42 43 28 15 14 16 16 14 17 19 22 28 36 40 45 42 64 75 66 41
10 10 11 11 11 13 16 23 24 27 30 32 32 33 36 37 37 34 32 34 36 40 42 46 47 48 47 24 14 18 20 21 19 19 25 30 38 49 49 71 83 69 60
12 10 10 10 10 10 16 24 28 28 30 29 31 35 35 37 33 30 33 35 32 31 28 37 47 50 50 53 48 26 23 25 25 32 27 23 40 61 62 62 76 86 84
13 12 11 11 11 12 19 28 30 29 29 29 32 33 36 33 31 34 36 32 32 31 32 36 39 49 53 54 54 55 54 39 26 26 57 46 64 70 69 81 81 95 95
13 12 11 11 11 13 17 21 26 33 34 34 35 35 33 31 29 27 23 20 18 16 18 24 30 38 47 50 53 56 60 62 62 54 64 71 84 89 70 85 98 88 86
13 12 11 11 11 11 12 16 21 20 18 20 21 19 16 15 15 18 20 21 21 20 20 20 20 19 20 36 52 58 75 76 74 90 86 93 99 94 80 96 100 98 62
13 12 12 12 22 16 20 17 15 16 15 16 16 18 20 22 20 20 19 20 21 21 20 18 18 18 19 20 21 27 62 75 84 97 100 99 91 82 97 98 100 82 63
15 14 15 14 16 17 13 12 16 18 21 22 22 22 21 22 22 22 20 20 18 19 22 26 22 22 30 40 36 68 91 98 94 95 97 96 96 82 98 100 100 89 63
20 17 15 19 25 26 24 25 27 25 22 22 22 22 21 20 19 19 18 16 16 16 20 28 38 59 97 86 96 85 98 95 81 92 97 90 99 85 97 100 92 56 59
33 31 29 27 24 25 28 26 24 24 24 23 21 20 19 20 22 23 23 27 30 30 28 28 42 61 85 96 85 94 98 99 78 99 99 68 74 98 100 79 49 52 42
29 30 28 27 28 29 28 26 25 24 22 22 20 22 20 26 29 32 34 33 32 35 37 47 58 64 72 80 96 99 99 99 93 98 98 76 99 98 90 48 58 44 36
47 42 39 33 33 32 29 27 29 28 27 30 35 38 36 39 41 41 41 42 50 62 74 77 85 98 100 100 97 99 95 100 99 95 83 83 68 53 50 56 44 35 32
51 49 47 42 39 36 36 36 36 39 44 48 50 48 48 50 52 53 54 57 63 71 76 87 87 84 82 83 78 80 82 81 87 87 93 77 45 42 50 52 46 37 33
62 55 50 49 48 46 47 52 52 54 56 55 54 56 58 67 68 65 63 69 72 76 82 90 96 88 90 88 83 92 88 97 100 85 60 52 47 53 58 49 40 39 28
92 75 62 57 65 69 66 69 67 67 70 71 73 70 75 77 82 83 79 75 72 82 78 94 98 90 97 98 98 98 97 88 84 66 52 50 49 42 37 34 36 32 29
63 64 61 61 65 69 74 80 82 81 78 77 77 78 81 84 89 89 85 81 75 83 92 97 85 93 94 87 79 68 64 65 59 55 51 50 47 42 42 44 48 48 45
Wind_Speed
25 26 27 27 26 24 25 26 24 21 18 20 20 15 15 17 18 22 25 26 24 21 17 14 13 15 14 12 10 11 11 10 9 10 14 19 18 20 21 20 19 17 17
21 22 26 26 26 28 26 24 23 23 21 19 22 20 18 18 19 22 23 26 26 24 21 19 17 17 18 17 15 14 15 15 13 12 14 18 20 20 21 22 21 20 18
25 23 23 23 27 27 26 25 24 23 22 22 22 24 20 21 21 22 25 27 29 25 25 25 23 21 21 20 20 20 19 19 17 15 14 18 22 23 23 21 20 20 19
28 26 24 23 23 24 25 26 27 25 26 26 25 25 27 24 25 24 25 28 30 31 29 28 27 27 24 23 24 24 25 24 21 21 17 16 20 25 26 24 22 19 14
32 29 27 25 24 25 24 22 21 22 20 22 24 26 24 25 25 26 24 25 27 31 33 32 29 29 29 27 28 28 28 30 28 26 24 22 20 22 25 27 27 29 26
25 26 29 30 29 30 28 26 25 24 24 24 24 24 23 21 21 22 25 26 27 28 32 35 35 33 33 32 32 32 32 32 32 31 30 28 24 23 24 26 27 28 27
20 20 21 28 35 34 32 31 31 28 26 25 25 25 24 22 22 23 23 24 27 30 30 34 39 38 38 37 37 36 37 37 35 33 33 30 27 26 26 26 26 28 28
25 22 21 20 27 37 35 34 33 32 31 29 29 27 27 25 25 24 26 28 29 29 33 33 38 41 42 41 41 42 40 41 40 39 36 33 29 29 27 25 26 27 30
29 27 23 23 21 28 36 38 39 36 35 35 34 34 33 32 32 31 33 34 34 34 34 35 37 40 43 44 45 46 45 45 43 43 41 38 35 31 30 26 26 28 32
34 31 28 26 26 23 30 37 41 40 40 41 40 39 38 38 38 38 40 43 44 40 40 42 42 41 41 44 48 49 49 48 46 45 46 44 39 35 32 26 27 31 34
34 34 33 32 30 29 28 34 39 42 43 43 43 43 42 38 38 39 41 46 44 47 47 48 46 45 45 46 49 49 51 47 47 46 46 46 44 40 32 30 28 23 31
32 32 33 36 36 35 34 33 39 43 45 45 45 42 40 40 40 36 35 40 42 50 53 55 57 54 49 51 53 54 52 52 50 52 52 51 48 40 30 32 32 26 30
34 34 34 34 35 35 35 36 38 42 42 42 43 43 44 42 42 41 41 42 42 49 47 53 59 64 60 59 56 56 56 57 59 58 54 54 46 37 32 40 45 32 29
33 32 31 31 30 31 31 31 30 36 40 42 45 46 44 42 42 45 46 45 45 46 47 50 54 59 64 66 66 65 61 59 59 67 55 49 40 39 36 46 49 47 48
35 33 30 29 28 25 26 29 29 29 33 36 38 39 41 40 40 39 37 39 38 36 39 43 48 52 54 61 68 69 70 65 60 66 59 49 41 34 44 55 46 28 24
35 31 30 29 27 27 27 25 24 24 26 28 28 28 28 30 31 32 34 37 42 45 45 47 48 49 54 56 60 64 67 68 66 64 63 48 40 33 36 47 40 32 23
34 31 32 30 27 29 26 26 26 27 28 28 28 28 28 30 33 38 41 43 46 52 61 63 61 63 62 63 65 64 61 60 65 62 56 57 52 32 37 37 38 26 25
33 34 35 35 33 34 32 30 26 24 24 27 29 32 35 38 43 47 49 51 53 54 59 62 64 67 69 69 69 61 58 52 56 58 62 54 33 18 31 39 27 22 25
29 34 36 33 29 25 23 22 23 24 25 28 30 34 38 42 45 49 52 55 56 57 59 61 62 68 68 65 67 64 62 59 51 48 52 36 27 22 33 33 22 26 28
27 28 29 27 26 26 24 24 24 25 27 30 32 36 40 43 46 48 48 49 50 51 53 56 54 53 57 58 67 64 63 62 59 55 36 20 27 31 29 22 24 26 27
27 26 28 29 29 28 27 27 28 29 28 31 34 33 38 40 41 42 42 43 42 42 40 37 31 26 30 40 52 63 69 70 31 37 22 17 26 29 24 25 25 26 22
19 21 23 25 21 22 23 24 24 24 25 24 25 27 31 31 30 30 29 29 28 23 21 25 21 7 6 2 3 18 13 22 20 19 21 23 20 23 23 23 25 24 25
21 20 18 19 19 20 20 20 19 18 18 19 20 21 20 17 15 16 18 18 17 17 16 16 14 14 15 24 15 17 22 14 15 20 20 14 20 24 24 25 25 25 25
16 17 15 14 15 16 14 13 16 16 17 17 17 17 15 14 14 17 16 17 13 14 14 15 15 14 6 8 10 10 13 15 14 11 13 17 19 22 26 24 24 24 23
15 12 11 11 11 14 16 16 17 18 18 17 19 20 18 17 18 17 15 18 17 13 11 7 5 6 4 4 6 8 9 7 13 13 16 19 20 20 21 20 22 23 23
18 18 18 19 17 18 19 19 19 20 21 22 22 22 22 21 20 21 23 26 24 18 8 7 4 7 13 11 9 8 8 11 14 15 17 16 17 19 22 22 21 23 23
Wind_Direction
221 223 222 221 223 228 232 232 234 241 235 241 260 257 251 253 247 241 237 233 233 234 234 241 250 269 281 293 302 313 321 323 318 302 309 323 334 324 326 324 320 324 318
210 213 217 219 221 225 230 229 233 240 247 241 254 261 259 256 254 249 242 243 242 238 243 248 252 259 274 284 298 303 303 308 314 311 303 317 323 322 324 320 313 309 314
205 209 212 217 221 225 228 233 234 239 244 248 250 263 260 256 255 253 249 244 248 247 246 250 259 261 267 279 290 296 301 301 305 308 311 304 308 314 323 330 317 306 303
217 218 217 218 223 225 228 231 236 240 242 249 252 255 263 260 257 257 255 252 247 251 252 249 252 261 269 275 283 289 294 298 299 305 309 304 303 311 317 326 320 310 313
230 228 229 227 227 224 220 216 221 228 231 236 246 252 253 258 255 256 256 255 256 252 256 258 254 256 264 270 274 281 285 292 300 305 310 309 310 305 309 315 321 315 313
236 238 237 233 231 228 223 221 221 225 229 235 238 243 250 253 259 259 258 258 256 255 253 257 259 257 259 264 268 273 279 284 290 298 305 309 311 305 303 309 317 312 310
232 234 244 239 235 233 230 229 231 231 237 243 248 252 257 262 263 262 265 264 258 256 255 254 256 258 259 261 264 267 271 278 284 288 293 299 299 300 299 301 305 302 300
231 236 249 263 244 237 238 239 239 239 241 246 252 258 264 269 269 268 267 267 266 261 255 253 257 258 259 260 262 264 266 271 277 282 286 290 290 290 295 294 295 298 297
231 240 248 259 265 250 244 243 243 244 248 250 253 258 264 268 270 271 269 268 268 267 266 260 256 259 260 262 263 265 266 267 271 276 279 280 283 285 283 286 299 309 301
233 240 246 255 262 267 255 247 245 247 250 251 255 261 267 268 267 269 270 268 267 267 268 267 265 262 261 262 263 264 266 269 271 274 276 278 278 275 270 268 287 310 287
236 240 244 251 257 262 261 253 248 246 245 250 254 259 261 263 263 266 269 271 269 270 271 272 272 271 270 268 269 270 273 270 267 269 269 270 271 272 271 272 275 287 293
245 246 246 247 250 254 257 258 250 244 246 249 253 252 255 263 266 262 264 266 268 268 268 268 270 272 270 270 269 271 273 275 273 269 267 268 268 266 264 270 269 266 271
238 244 249 249 249 251 255 256 254 244 245 247 248 251 261 260 259 259 265 259 261 264 268 268 265 265 265 265 265 266 270 271 272 271 268 270 265 258 256 260 271 259 260
238 242 246 249 250 251 253 253 254 248 246 249 251 257 260 260 259 260 264 266 266 267 270 274 274 268 267 266 266 266 265 267 270 276 272 269 253 246 264 284 278 262 280
236 239 241 244 247 251 252 254 254 251 251 254 256 257 260 263 262 263 266 268 267 270 272 273 275 273 268 267 269 267 268 267 266 268 267 263 239 238 273 284 272 252 238
235 240 240 242 243 246 249 250 252 253 252 252 255 258 260 262 267 274 279 282 288 289 283 281 280 277 277 272 263 264 261 262 263 265 267 255 229 260 272 269 248 247 247
233 240 243 242 243 243 242 245 244 247 252 255 259 264 270 278 283 286 289 289 288 289 290 288 284 283 277 269 271 271 258 258 258 256 261 258 232 272 257 261 250 231 240
236 239 243 242 241 245 253 257 258 260 263 268 275 280 284 287 287 289 290 291 288 284 283 283 283 281 276 271 271 271 269 253 251 251 251 252 277 275 238 243 230 247 251
240 239 243 242 238 239 239 241 249 258 267 276 282 288 292 293 293 291 289 285 282 281 281 280 276 273 272 275 275 267 261 253 249 250 252 248 250 278 235 230 239 235 246
241 237 238 235 236 238 243 252 261 269 276 283 289 292 293 290 288 285 284 284 286 288 288 284 283 280 272 280 273 270 259 258 247 238 232 259 265 235 226 234 238 240 244
225 228 235 239 241 248 257 264 269 276 281 286 290 293 292 288 288 288 288 290 289 288 287 289 290 301 297 282 271 270 250 231 237 226 227 240 217 227 229 229 237 241 246
213 220 230 246 251 257 259 265 271 277 282 285 288 288 289 290 292 294 295 295 299 301 300 302 310 344 349 99 359 180 210 200 205 204 204 200 208 219 225 231 237 243 250
213 218 223 235 245 256 261 263 267 269 270 273 279 283 290 293 305 319 321 320 315 308 304 315 314 306 269 273 284 245 240 234 224 211 202 211 220 226 226 231 237 246 249
214 222 230 242 256 262 262 257 257 257 259 266 273 278 279 282 303 319 328 332 331 334 314 309 304 318 293 267 272 206 187 183 186 201 215 223 222 226 231 234 239 240 248
212 223 237 237 242 256 263 259 253 256 264 272 282 286 287 283 283 295 307 314 323 322 330 316 304 300 226 192 183 187 192 203 192 206 223 228 229 236 245 246 242 245 247
231 225 235 252 248 248 252 258 262 266 270 274 277 278 278 279 281 285 293 300 305 290 257 267 283 237 221 218 209 235 240 229 232 240 245 243 246 246 247 249 252 250 247